Voltar ao catálogo

STARLINK-36748

AtivoComunicaçõesSSO
NORAD 67693·PAYLOAD·🇺🇸 United States

Lançado Feb 7, 2026 de Vandenberg Space Force Base

Loading…

Próximas Passagens (próximas 24 horas)

TLE

AtualizadoSource: CelesTrak SupGP

Época: Sep 15, 2026, 03:45 UTC

1 67693C 26025A   26258.15673611 -.00017215  00000+0 -53425-3 0  2586
2 67693  97.2858   8.1895 0001185  89.6991 166.5012 15.33457611    18

Acompanhe STARLINK-36748 em tempo real com AllMySat

Download on the App Store